FW3825 Weather Reports


Display with metric or nautical units.
time (UTC)temp
F
wind
direction
speed
MPH
gust
MPH
rain 1hr
in
rain 24hr
in
rain mn
in
humidity
%
barometer
mb
20210515164056 76 293 0.0 9.0 0.00 0.00 0.00 75 1016.4
20210515163653 76 0 0.0 9.0 0.00 0.00 0.00 75 1016.4
20210515162649 77 61 1.0 9.0 0.00 0.00 0.00 75 1016.4
20210515162247 76 298 1.0 6.0 0.00 0.00 0.00 78 1016.3
20210515162144 76 175 1.0 6.0 0.00 0.00 0.00 78 1016.4
20210515161741 75 33 0.0 6.0 0.00 0.00 0.00 79 1016.4
20210515161638 75 25 0.0 5.0 0.00 0.00 0.00 80 1016.5
20210515161537 75 24 0.0 5.0 0.00 0.00 0.00 80 1016.5
20210515161434 75 5 0.0 5.0 0.00 0.00 0.00 81 1016.5
20210515161336 75 355 0.0 5.0 0.00 0.00 0.00 80 1016.5
20210515161238 74 315 0.0 5.0 0.00 0.00 0.00 82 1016.6
20210515160837 74 325 0.0 4.0 0.00 0.00 0.00 81 1016.5
20210515160130 74 50 0.0 4.0 0.00 0.00 0.00 81 1016.5
20210515155726 74 276 0.0 6.0 0.00 0.00 0.00 82 1016.5
20210515155622 73 286 0.0 6.0 0.00 0.00 0.00 82 1016.5
20210515155520 73 296 0.0 6.0 0.00 0.00 0.00 82 1016.6
20210515155422 73 338 0.0 6.0 0.00 0.00 0.00 83 1016.8
20210515155321 73 336 0.0 6.0 0.00 0.00 0.00 83 1016.6
20210515154920 73 213 0.0 6.0 0.00 0.00 0.00 84 1016.6
20210515154820 73 273 0.0 6.0 0.00 0.00 0.00 84 1016.7
20210515153817 72 298 0.0 4.0 0.00 0.00 0.00 86 1016.7
20210515153419 71 320 0.0 4.0 0.00 0.00 0.00 86 1016.7
20210515153320 71 341 0.0 4.0 0.00 0.00 0.00 87 1016.6
20210515153218 71 28 0.0 4.0 0.00 0.00 0.00 87 1016.8
20210515152516 71 33 0.0 0.0 0.00 0.00 0.00 86 1016.8
20210515152416 71 355 0.0 0.0 0.00 0.00 0.00 86 1016.8
20210515152314 71 13 0.0 0.0 0.00 0.00 0.00 86 1016.9
20210515152212 71 256 0.0 0.0 0.00 0.00 0.00 86 1016.8
20210515152112 71 256 0.0 0.0 0.00 0.00 0.00 86 1016.8
20210515152015 71 5 0.0 0.0 0.00 0.00 0.00 86 1016.9
20210515151312 71 252 0.0 0.0 0.00 0.00 0.00 85 1016.9
20210515150613 71 287 0.0 5.0 0.00 0.00 0.00 85 1016.9
20210515145609 70 290 0.0 5.0 0.00 0.00 0.00 87 1017.0
20210515145510 70 355 0.0 5.0 0.00 0.00 0.00 87 1017.0
20210515145408 70 5 0.0 5.0 0.00 0.00 0.00 87 1017.0
20210515145310 70 302 0.0 3.0 0.00 0.00 0.00 87 1017.1
20210515143106 69 288 0.0 0.0 0.00 0.00 0.00 88 1017.1
20210515143007 69 289 0.0 0.0 0.00 0.00 0.00 88 1017.1
20210515142906 69 289 0.0 4.0 0.00 0.00 0.00 88 1017.1
20210515142807 69 289 0.0 4.0 0.00 0.00 0.00 88 1017.1
20210515142709 69 310 0.0 4.0 0.00 0.00 0.00 88 1017.1
20210515142609 69 311 0.0 4.0 0.00 0.00 0.00 88 1017.2
20210515142209 69 266 0.0 4.0 0.00 0.00 0.00 88 1017.1
20210515141808 69 317 0.0 4.0 0.00 0.00 0.00 88 1017.1
20210515141705 68 331 0.0 4.0 0.00 0.00 0.00 88 1017.2
20210515141606 68 331 0.0 4.0 0.00 0.00 0.00 88 1017.1
20210515141507 68 350 0.0 4.0 0.00 0.00 0.00 88 1017.1
20210515141104 68 251 0.0 0.0 0.00 0.00 0.00 88 1016.9
20210515141006 68 291 0.0 0.0 0.00 0.00 0.00 88 1016.9
20210515140258 68 5 0.0 5.0 0.00 0.00 0.00 88 1017.0
20210515140200 68 282 0.0 5.0 0.00 0.00 0.00 88 1016.8
20210515140058 68 257 0.0 5.0 0.00 0.00 0.00 89 1016.8
20210515135957 68 327 0.0 5.0 0.00 0.00 0.00 89 1016.8
20210515134950 67 254 0.0 3.0 0.00 0.00 0.00 89 1016.7
20210515134850 67 280 0.0 0.0 0.00 0.00 0.00 89 1016.8
20210515133840 67 265 0.0 4.0 0.00 0.00 0.00 89 1017.0
20210515133737 67 277 0.0 4.0 0.00 0.00 0.00 89 1017.0
20210515133638 67 304 0.0 4.0 0.00 0.00 0.00 89 1017.1
20210515133238 67 252 0.0 4.0 0.00 0.00 0.00 90 1017.0
20210515133139 66 278 0.0 4.0 0.00 0.00 0.00 89 1017.1
20210515132129 66 345 0.0 0.0 0.00 0.00 0.00 90 1016.9
20210515132030 66 297 0.0 0.0 0.00 0.00 0.00 90 1016.9
20210515131932 66 297 0.0 0.0 0.00 0.00 0.00 90 1016.9
20210515131223 65 280 0.0 0.0 0.00 0.00 0.00 90 1017.0
20210515130519 65 287 0.0 3.0 0.00 0.00 0.00 90 1016.9
20210515125812 65 291 0.0 0.0 0.00 0.00 0.00 90 1017.1
20210515125708 65 292 0.0 1.0 0.00 0.00 0.00 90 1017.2
20210515125609 65 290 0.0 1.0 0.00 0.00 0.00 90 1017.1
20210515125507 65 25 0.0 0.0 0.00 0.00 0.00 90 1017.1
20210515125410 65 32 0.0 0.0 0.00 0.00 0.00 90 1017.1
20210515124408 65 269 0.0 3.0 0.00 0.00 0.00 90 1017.1
20210515124002 65 5 0.0 0.0 0.00 0.00 0.00 90 1016.9
20210515122652 65 296 0.0 1.0 0.00 0.00 0.00 90 1016.9
20210515122246 65 338 0.0 0.0 0.00 0.00 0.00 90 1016.8
20210515121846 65 290 0.0 2.0 0.00 0.00 0.00 90 1016.8
20210515120839 65 323 0.0 0.0 0.00 0.00 0.00 91 1016.7
20210515120438 65 322 0.0 0.0 0.00 0.00 0.00 91 1016.6
20210515120335 65 322 0.0 0.0 0.00 0.00 0.00 90 1016.6
20210515115321 65 269 0.0 0.0 0.00 0.00 0.00 90 1016.5
20210515115221 65 269 0.0 0.0 0.00 0.00 0.00 90 1016.5
20210515114814 65 269 0.0 0.0 0.00 0.00 0.00 90 1016.4
20210515114410 65 269 0.0 0.0 0.00 0.00 0.00 91 1016.5
20210515114312 65 269 0.0 0.0 0.00 0.00 0.00 91 1016.4
20210515114209 65 355 0.0 0.0 0.00 0.00 0.00 91 1016.4
20210515114111 65 5 0.0 0.0 0.00 0.00 0.00 91 1016.4
20210515113710 65 5 0.0 0.0 0.00 0.00 0.00 91 1016.3
20210515112702 64 291 0.0 0.0 0.00 0.00 0.00 91 1016.4
20210515112305 64 290 0.0 1.0 0.00 0.00 0.00 91 1016.3
20210515112203 64 282 0.0 1.0 0.00 0.00 0.00 91 1016.3
20210515112102 64 282 0.0 1.0 0.00 0.00 0.00 91 1016.3
20210515112001 64 289 0.0 0.0 0.00 0.00 0.00 91 1016.3
20210515111556 64 0 0.0 0.0 0.00 0.00 0.00 91 1016.3
20210515111456 64 0 0.0 0.0 0.00 0.00 0.00 91 1016.3
20210515111353 64 0 0.0 0.0 0.00 0.00 0.00 92 1016.3
20210515111255 64 0 0.0 0.0 0.00 0.00 0.00 91 1016.3
20210515110853 64 311 0.0 0.0 0.00 0.00 0.00 91 1016.3
20210515110750 64 311 0.0 0.0 0.00 0.00 0.00 91 1016.4
20210515110353 64 311 0.0 0.0 0.00 0.00 0.00 92 1016.3
20210515110252 64 311 0.0 0.0 0.00 0.00 0.00 92 1016.3
20210515105848 64 313 0.0 0.0 0.00 0.00 0.00 92 1016.3
20210515105746 64 313 0.0 0.0 0.00 0.00 0.00 92 1016.3
20210515105645 64 313 0.0 0.0 0.00 0.00 0.00 92 1016.3
20210515105247 64 293 0.0 0.0 0.00 0.00 0.00 92 1016.4
20210515104847 64 32 0.0 0.0 0.00 0.00 0.00 92 1016.3
20210515104445 64 32 0.0 0.0 0.00 0.00 0.00 92 1016.2
20210515104342 64 32 0.0 0.0 0.00 0.00 0.00 92 1016.2
20210515104243 64 32 0.0 0.0 0.00 0.00 0.00 92 1016.2
20210515104140 64 311 0.0 0.0 0.00 0.00 0.00 92 1016.3
20210515104039 64 311 0.0 0.0 0.00 0.00 0.00 92 1016.4
20210515103941 64 311 0.0 0.0 0.00 0.00 0.00 92 1016.3
20210515103238 64 323 0.0 0.0 0.00 0.00 0.00 92 1016.3
20210515103138 64 323 0.0 0.0 0.00 0.00 0.00 92 1016.3
20210515102734 63 323 0.0 0.0 0.00 0.00 0.00 92 1016.3
20210515102328 63 323 0.0 0.0 0.00 0.00 0.00 92 1016.1
20210515102227 63 284 0.0 0.0 0.00 0.00 0.00 92 1016.1
20210515101524 63 348 0.0 0.0 0.00 0.00 0.00 91 1016.1
20210515101421 63 348 0.0 0.0 0.00 0.00 0.00 91 1016.1
20210515101022 63 348 0.0 0.0 0.00 0.00 0.00 91 1016.0
20210515100319 63 341 0.0 0.0 0.00 0.00 0.00 91 1016.1
20210515095915 64 333 0.0 0.0 0.00 0.00 0.00 91 1016.1
20210515095509 64 334 0.0 0.0 0.00 0.00 0.00 91 1015.9
20210515095407 64 334 0.0 0.0 0.00 0.00 0.00 91 1016.0
20210515095306 64 334 0.0 0.0 0.00 0.00 0.00 91 1016.0
20210515095203 64 334 0.0 0.0 0.00 0.00 0.00 91 1016.0
20210515094501 64 320 0.0 1.0 0.00 0.00 0.00 91 1015.9
20210515094359 64 329 0.0 0.0 0.00 0.00 0.00 91 1015.8
20210515093352 64 347 0.0 0.0 0.00 0.00 0.00 91 1016.0
20210515093251 64 346 0.0 0.0 0.00 0.00 0.00 90 1016.1
20210515093154 64 347 0.0 0.0 0.00 0.00 0.00 90 1016.0
20210515092136 64 355 0.0 0.0 0.00 0.00 0.00 90 1016.0
20210515092035 64 355 0.0 0.0 0.00 0.00 0.00 90 1016.0
20210515091631 64 326 0.0 0.0 0.00 0.00 0.00 90 1015.9
20210515091533 64 306 0.0 0.0 0.00 0.00 0.00 90 1015.9
20210515091126 64 306 0.0 0.0 0.00 0.00 0.00 90 1015.9
20210515091023 64 306 0.0 0.0 0.00 0.00 0.00 90 1015.9
20210515090921 64 306 0.0 0.0 0.00 0.00 0.00 89 1015.9
20210515090821 64 308 0.0 0.0 0.00 0.00 0.00 89 1015.9
20210515090719 64 308 0.0 0.0 0.00 0.00 0.00 89 1015.9
20210515090617 64 308 0.0 0.0 0.00 0.00 0.00 89 1015.9
20210515090516 64 308 0.0 0.0 0.00 0.00 0.00 89 1016.0
20210515090417 65 308 0.0 0.0 0.00 0.00 0.00 89 1016.0
20210515090015 65 336 0.0 0.0 0.00 0.00 0.00 89 1016.0
20210515085611 65 327 0.0 0.0 0.00 0.00 0.00 89 1016.1
20210515085509 65 327 0.0 0.0 0.00 0.00 0.00 89 1016.1
20210515085408 65 327 0.0 1.0 0.00 0.00 0.00 89 1016.1
20210515085306 65 321 0.0 1.0 0.00 0.00 0.00 89 1016.1
20210515084900 65 312 0.0 0.0 0.00 0.00 0.00 89 1016.0
20210515084758 65 312 0.0 0.0 0.00 0.00 0.00 89 1016.0
20210515084656 65 306 0.0 0.0 0.00 0.00 0.00 89 1016.0
20210515084554 65 38 0.0 0.0 0.00 0.00 0.00 89 1015.9
20210515084155 65 355 0.0 0.0 0.00 0.00 0.00 89 1015.9
20210515083455 65 5 0.0 0.0 0.00 0.00 0.00 89 1016.0
20210515083056 65 9 0.0 1.0 0.00 0.00 0.00 89 1015.9
20210515082954 65 355 0.0 1.0 0.00 0.00 0.00 89 1015.9
20210515082550 65 24 0.0 1.0 0.00 0.00 0.00 89 1015.9
20210515082449 65 44 0.0 0.0 0.00 0.00 0.00 89 1015.9
20210515081753 65 327 0.0 1.0 0.00 0.00 0.00 89 1015.8
20210515081655 65 327 0.0 1.0 0.00 0.00 0.00 89 1015.9
20210515081556 65 20 0.0 0.0 0.00 0.00 0.00 89 1016.0
20210515081154 65 10 0.0 0.0 0.00 0.00 0.00 89 1015.9
20210515080445 65 41 0.0 0.0 0.00 0.00 0.00 89 1016.2
20210515080345 65 13 0.0 0.0 0.00 0.00 0.00 89 1016.2
20210515080243 65 16 0.0 0.0 0.00 0.00 0.00 88 1016.2
20210515080140 65 326 0.0 0.0 0.00 0.00 0.00 89 1016.1
20210515080040 65 299 0.0 0.0 0.00 0.00 0.00 88 1016.1
20210515075939 65 302 0.0 0.0 0.00 0.00 0.00 88 1016.1
20210515075538 66 321 0.0 0.0 0.00 0.00 0.00 88 1016.3
20210515075436 66 40 0.0 0.0 0.00 0.00 0.00 88 1016.3
20210515075338 66 40 0.0 0.0 0.00 0.00 0.00 88 1016.3
20210515074938 66 31 0.0 0.0 0.00 0.00 0.00 88 1016.4
20210515074838 66 5 0.0 0.0 0.00 0.00 0.00 88 1016.4
20210515073834 66 336 0.0 0.0 0.00 0.00 0.00 88 1016.6
20210515073132 66 5 0.0 0.0 0.00 0.00 0.00 88 1016.8
20210515071519 66 336 0.0 2.0 0.00 0.00 0.00 87 1016.8
20210515071418 66 336 0.0 2.0 0.00 0.00 0.00 87 1016.9
20210515071319 66 32 0.0 2.0 0.00 0.00 0.00 87 1016.9
20210515070916 66 30 0.0 1.0 0.00 0.00 0.00 87 1016.9
20210515070817 66 28 0.0 1.0 0.00 0.00 0.00 87 1017.0
20210515070412 66 51 0.0 0.0 0.00 0.00 0.00 87 1017.2
20210515070011 67 19 0.0 0.0 0.00 0.00 0.00 86 1017.0
20210515065913 67 350 0.0 0.0 0.00 0.00 0.00 86 1017.0
20210515065810 67 350 0.0 0.0 0.00 0.00 0.00 86 1017.0
20210515065408 67 351 0.0 0.0 0.00 0.00 0.00 86 1017.1
20210515065306 67 351 0.0 0.0 0.00 0.00 0.00 86 1017.1
20210515064906 67 313 0.0 2.0 0.00 0.00 0.00 86 1017.2
20210515064502 67 48 0.0 0.0 0.00 0.00 0.00 86 1017.2
20210515064402 67 48 0.0 0.0 0.00 0.00 0.00 86 1017.2
20210515064000 67 46 0.0 1.0 0.00 0.00 0.00 85 1017.2
20210515063255 67 355 0.0 0.0 0.00 0.00 0.00 85 1017.1
20210515063153 67 249 0.0 0.0 0.00 0.00 0.00 85 1017.1
20210515062749 68 38 0.0 1.0 0.00 0.00 0.00 85 1017.2
20210515062651 68 34 0.0 0.0 0.00 0.00 0.00 85 1017.2
20210515062553 68 34 0.0 0.0 0.00 0.00 0.00 85 1017.2
20210515062452 68 316 0.0 0.0 0.00 0.00 0.00 84 1017.3
20210515061749 68 34 0.0 2.0 0.00 0.00 0.00 84 1017.4
20210515061047 68 355 0.0 0.0 0.00 0.00 0.00 83 1017.4
20210515060948 68 43 0.0 0.0 0.00 0.00 0.00 83 1017.4
20210515060850 68 44 0.0 0.0 0.00 0.00 0.00 83 1017.4
20210515054931 69 26 0.0 5.0 0.00 0.00 0.00 83 1017.4
20210515054832 69 32 0.0 4.0 0.00 0.00 0.00 82 1017.4
20210515054425 69 36 0.0 4.0 0.00 0.00 0.00 82 1017.3
20210515054323 69 37 0.0 4.0 0.00 0.00 0.00 82 1017.4
20210515054223 69 306 0.0 4.0 0.00 0.00 0.00 82 1017.3
20210515053518 70 331 0.0 8.0 0.00 0.00 0.00 82 1017.4
20210515053117 70 346 0.0 8.0 0.00 0.00 0.00 82 1017.3
20210515052417 70 295 0.0 8.0 0.00 0.00 0.00 82 1017.4
20210515052317 70 0 0.0 8.0 0.00 0.00 0.00 82 1017.5
20210515052214 70 46 0.0 8.0 0.00 0.00 0.00 82 1017.5
20210515052111 70 34 0.0 5.0 0.00 0.00 0.00 82 1017.5
20210515051707 70 324 0.0 4.0 0.00 0.00 0.00 82 1017.4
20210515051604 70 0 0.0 2.0 0.00 0.00 0.00 82 1017.2
20210515051506 70 51 0.0 2.0 0.00 0.00 0.00 82 1017.2
20210515051402 70 257 0.0 2.0 0.00 0.00 0.00 82 1017.3
20210515051303 70 313 0.0 2.0 0.00 0.00 0.00 82 1017.2
20210515050553 70 20 0.0 3.0 0.00 0.00 0.00 82 1017.1
20210515045852 70 70 0.0 3.0 0.00 0.00 0.00 81 1017.0
20210515045148 70 14 0.0 3.0 0.00 0.00 0.00 81 1016.9
20210515045050 70 13 0.0 5.0 0.00 0.00 0.00 81 1016.8
20210515044649 71 343 0.0 5.0 0.00 0.00 0.00 80 1016.7
20210515044545 71 297 0.0 5.0 0.00 0.00 0.00 80 1016.6
20210515044444 71 325 0.0 5.0 0.00 0.00 0.00 80 1016.5
20210515044044 71 336 0.0 6.0 0.00 0.00 0.00 80 1016.6
20210515043942 71 286 0.0 6.0 0.00 0.00 0.00 80 1016.7
20210515043839 71 14 0.0 6.0 0.00 0.00 0.00 80 1016.7
20210515043438 71 17 0.0 6.0 0.00 0.00 0.00 80 1016.9
20210515043031 71 293 0.0 6.0 0.00 0.00 0.00 79 1016.7
20210515042932 71 271 0.0 6.0 0.00 0.00 0.00 79 1016.8
20210515042833 71 253 0.0 6.0 0.00 0.00 0.00 79 1016.8
20210515042730 71 267 0.0 6.0 0.00 0.00 0.00 79 1016.7
20210515042628 71 309 0.0 6.0 0.00 0.00 0.00 79 1016.6
20210515042528 71 327 0.0 6.0 0.00 0.00 0.00 79 1016.7
20210515041821 72 300 0.0 6.0 0.00 0.00 0.00 78 1016.8
20210515041721 72 55 0.0 6.0 0.00 0.00 0.00 78 1016.8
20210515041621 72 269 0.0 6.0 0.00 0.00 0.00 78 1016.8
20210515041521 72 333 0.0 6.0 0.00 0.00 0.00 78 1016.7
20210515041418 72 0 0.0 6.0 0.00 0.00 0.00 78 1016.8
20210515041316 72 38 0.0 6.0 0.00 0.00 0.00 78 1016.7
20210515041213 72 284 0.0 6.0 0.00 0.00 0.00 78 1016.6
20210515041114 72 27 0.0 4.0 0.00 0.00 0.00 78 1016.6
20210515041011 72 337 0.0 4.0 0.00 0.00 0.00 78 1016.6
20210515040607 72 19 0.0 4.0 0.00 0.00 0.00 78 1016.6
20210515040508 72 39 0.0 4.0 0.00 0.00 0.00 78 1016.6
20210515040406 72 17 0.0 4.0 0.00 0.00 0.00 78 1016.5
20210515040000 72 346 0.0 4.0 0.00 0.00 0.00 78 1016.6
20210515035257 72 15 0.0 4.0 0.00 0.00 0.00 78 1016.6
20210515035158 72 280 0.0 2.0 0.00 0.00 0.00 78 1016.6
20210515035057 72 342 0.0 1.0 0.00 0.00 0.00 78 1016.6
20210515034651 72 40 0.0 5.0 0.00 0.00 0.00 78 1016.6
20210515033644 72 350 0.0 2.0 0.00 0.00 0.00 77 1016.5
20210515033542 72 319 0.0 2.0 0.00 0.00 0.00 77 1016.6
20210515033439 72 10 0.0 2.0 0.00 0.00 0.00 77 1016.5
20210515033037 72 297 0.0 2.0 0.00 0.00 0.00 77 1016.5
20210515032937 72 0 0.0 0.0 0.00 0.00 0.00 77 1016.4
20210515032839 72 278 0.0 0.0 0.00 0.00 0.00 77 1016.5
20210515032736 72 278 0.0 0.0 0.00 0.00 0.00 76 1016.5
20210515032332 72 280 0.0 3.0 0.00 0.00 0.00 76 1016.4
20210515032230 72 280 0.0 3.0 0.00 0.00 0.00 76 1016.4
20210515030617 72 329 0.0 0.0 0.00 0.00 0.00 76 1016.5
20210515030515 72 336 0.0 0.0 0.00 0.00 0.00 76 1016.5
20210515030417 72 350 0.0 0.0 0.00 0.00 0.00 76 1016.5
20210515025405 73 295 0.0 5.0 0.00 0.00 0.00 75 1016.4
20210515024959 73 252 0.0 1.0 0.00 0.00 0.00 74 1016.4
20210515024256 73 281 0.0 5.0 0.00 0.00 0.00 74 1016.2
20210515023250 73 275 0.0 0.0 0.00 0.00 0.00 74 1016.3
20210515023150 73 275 0.0 0.0 0.00 0.00 0.00 74 1016.3
20210515022746 73 275 0.0 0.0 0.00 0.00 0.00 74 1016.3
20210515022345 73 286 0.0 2.0 0.00 0.00 0.00 74 1016.3
20210515022244 73 292 0.0 0.0 0.00 0.00 0.00 74 1016.3
20210515022142 73 292 0.0 0.0 0.00 0.00 0.00 74 1016.3
20210515022043 73 292 0.0 0.0 0.00 0.00 0.00 74 1016.3
20210515021635 73 292 0.0 0.0 0.00 0.00 0.00 73 1016.2
20210515021534 73 292 0.0 0.0 0.00 0.00 0.00 73 1016.2
20210515021130 73 292 0.0 0.0 0.00 0.00 0.00 73 1016.1
20210515021027 73 292 0.0 0.0 0.00 0.00 0.00 73 1016.1
20210515020924 73 292 0.0 0.0 0.00 0.00 0.00 73 1016.1
20210515020823 73 292 0.0 0.0 0.00 0.00 0.00 73 1016.1
20210515020724 73 292 0.0 0.0 0.00 0.00 0.00 73 1016.2
20210515020322 74 292 0.0 0.0 0.00 0.00 0.00 72 1016.1
20210515020221 74 292 0.0 0.0 0.00 0.00 0.00 72 1016.0
20210515015518 74 292 0.0 0.0 0.00 0.00 0.00 71 1015.9
20210515015417 74 292 0.0 0.0 0.00 0.00 0.00 71 1015.9
20210515015319 74 292 0.0 0.0 0.00 0.00 0.00 71 1015.9
20210515015220 74 292 0.0 0.0 0.00 0.00 0.00 71 1015.9
20210515014219 75 292 0.0 0.0 0.00 0.00 0.00 70 1015.9
20210515013819 75 292 0.0 0.0 0.00 0.00 0.00 70 1015.8
20210515013718 75 292 0.0 0.0 0.00 0.00 0.00 70 1015.8
20210515013616 75 292 0.0 0.0 0.00 0.00 0.00 70 1015.9
20210515013518 75 292 0.0 0.0 0.00 0.00 0.00 70 1015.8
20210515013418 75 292 0.0 0.0 0.00 0.00 0.00 70 1015.8
20210515013315 75 292 0.0 0.0 0.00 0.00 0.00 70 1015.8
20210515013212 75 292 0.0 0.0 0.00 0.00 0.00 70 1015.8
20210515012814 75 292 0.0 1.0 0.00 0.00 0.00 69 1015.8
20210515012715 75 292 0.0 1.0 0.00 0.00 0.00 69 1015.8
20210515012616 75 292 0.0 0.0 0.00 0.00 0.00 69 1015.8
20210515012213 75 292 0.0 0.0 0.00 0.00 0.00 69 1015.7
20210515011808 75 292 0.0 0.0 0.00 0.00 0.00 68 1015.7
20210515011406 76 292 0.0 0.0 0.00 0.00 0.00 68 1015.7
20210515011306 76 291 0.0 0.0 0.00 0.00 0.00 68 1015.7
20210515011204 76 291 0.0 1.0 0.00 0.00 0.00 68 1015.7
20210515010153 76 344 0.0 6.0 0.00 0.00 0.00 66 1015.7
20210515010054 76 284 0.0 6.0 0.00 0.00 0.00 67 1015.7
20210515005955 76 284 0.0 6.0 0.00 0.00 0.00 66 1015.6
20210515005853 76 273 0.0 6.0 0.00 0.00 0.00 66 1015.7
20210515005754 76 303 0.0 1.0 0.00 0.00 0.00 66 1015.6
20210515005652 76 271 0.0 0.0 0.00 0.00 0.00 66 1015.6
20210515005554 76 271 0.0 2.0 0.00 0.00 0.00 65 1015.6
20210515004847 77 271 0.0 2.0 0.00 0.00 0.00 65 1015.6
20210515004448 77 217 0.0 1.0 0.00 0.00 0.00 66 1015.6
20210515003744 77 293 0.0 7.0 0.00 0.00 0.00 65 1015.7
20210515003645 77 279 0.0 7.0 0.00 0.00 0.00 65 1015.7
20210515003546 77 246 0.0 7.0 0.00 0.00 0.00 64 1015.7
20210515003445 77 286 0.0 7.0 0.00 0.00 0.00 64 1015.7
20210515003040 78 29 0.0 2.0 0.00 0.00 0.00 63 1015.6
20210515002942 78 0 0.0 2.0 0.00 0.00 0.00 63 1015.7
20210515002840 78 355 0.0 2.0 0.00 0.00 0.00 62 1015.7
20210515001537 78 267 0.0 0.0 0.00 0.00 0.00 62 1015.7
20210515001136 78 308 0.0 5.0 0.00 0.00 0.00 61 1015.8
20210515001033 78 268 0.0 5.0 0.00 0.00 0.00 61 1015.8
20210515000630 79 304 0.0 4.0 0.00 0.00 0.00 61 1015.8
20210515000528 78 247 0.0 4.0 0.00 0.00 0.00 61 1015.9
20210514235516 78 260 0.0 2.0 0.00 0.00 0.00 61 1016.0
20210514234203 78 296 0.0 5.0 0.00 0.00 0.00 60 1016.1
20210514234102 78 296 0.0 5.0 0.00 0.00 0.00 59 1016.1
20210514233355 79 5 0.0 5.0 0.00 0.00 0.00 58 1016.2
20210514233256 79 281 0.0 5.0 0.00 0.00 0.00 58 1016.2
20210514232552 80 291 0.0 5.0 0.00 0.00 0.00 57 1016.3
20210514231849 81 333 0.0 5.0 0.00 0.00 0.00 59 1016.3
20210514231444 80 288 0.0 5.0 0.00 0.00 0.00 58 1016.4
20210514231342 80 282 0.0 4.0 0.00 0.00 0.00 58 1016.3
20210514231242 80 303 0.0 4.0 0.00 0.00 0.00 58 1016.3
20210514230840 80 38 0.0 5.0 0.00 0.00 0.00 58 1016.4
20210514230437 80 294 0.0 5.0 0.00 0.00 0.00 59 1016.4
20210514230338 79 265 0.0 5.0 0.00 0.00 0.00 59 1016.4
20210514225629 79 276 0.0 5.0 0.00 0.00 0.00 59 1016.4
20210514224923 79 270 0.0 4.0 0.00 0.00 0.00 58 1016.5
20210514224220 80 17 0.0 6.0 0.00 0.00 0.00 59 1016.5
20210514223516 80 304 0.0 6.0 0.00 0.00 0.00 59 1016.6
20210514223116 80 270 0.0 6.0 0.00 0.00 0.00 58 1016.6
20210514222712 80 189 0.0 5.0 0.00 0.00 0.00 59 1016.6
20210514222307 80 45 0.0 5.0 0.00 0.00 0.00 58 1016.7
20210514222207 80 331 0.0 5.0 0.00 0.00 0.00 58 1016.6
20210514221806 80 281 0.0 5.0 0.00 0.00 0.00 58 1016.7
20210514221709 80 320 0.0 5.0 0.00 0.00 0.00 57 1016.7
20210514220708 79 317 0.0 0.0 0.00 0.00 0.00 61 1016.7
20210514220607 79 320 0.0 5.0 0.00 0.00 0.00 59 1016.7
20210514215600 79 344 0.0 8.0 0.00 0.00 0.00 61 1016.9
20210514215459 79 300 0.0 8.0 0.00 0.00 0.00 59 1016.9
20210514215054 79 24 0.0 8.0 0.00 0.00 0.00 59 1016.9
20210514214348 79 265 0.0 5.0 0.00 0.00 0.00 57 1017.0
20210514214248 79 257 0.0 5.0 0.00 0.00 0.00 57 1017.0
20210514213548 79 288 0.0 5.0 0.00 0.00 0.00 57 1017.0
20210514212843 80 340 0.0 10.0 0.00 0.00 0.00 58 1017.1
20210514212136 81 187 1.0 10.0 0.00 0.00 0.00 57 1017.3
20210514211735 80 286 1.0 10.0 0.00 0.00 0.00 60 1017.2
20210514211634 80 9 1.0 10.0 0.00 0.00 0.00 58 1017.3
20210514211533 79 263 1.0 10.0 0.00 0.00 0.00 57 1017.3
20210514211130 79 281 0.0 6.0 0.00 0.00 0.00 59 1017.4
20210514210126 79 30 0.0 9.0 0.00 0.00 0.00 60 1017.4
20210514205727 80 32 1.0 9.0 0.00 0.00 0.00 57 1017.4
20210514205628 80 317 1.0 9.0 0.00 0.00 0.00 57 1017.5
20210514204930 79 319 1.0 14.0 0.00 0.00 0.00 58 1017.6
20210514204831 79 252 1.0 14.0 0.00 0.00 0.00 60 1017.6
20210514203829 80 278 1.0 14.0 0.00 0.00 0.00 56 1017.8
20210514203729 81 298 0.0 14.0 0.00 0.00 0.00 56 1017.8
20210514203628 81 251 0.0 14.0 0.00 0.00 0.00 54 1017.8
20210514203530 81 261 0.0 6.0 0.00 0.00 0.00 56 1017.9
20210514203431 81 290 0.0 6.0 0.00 0.00 0.00 56 1017.9
20210514203029 81 300 1.0 2.0 0.00 0.00 0.00 55 1017.9
20210514202327 81 258 1.0 9.0 0.00 0.00 0.00 56 1017.9
20210514202229 81 256 0.0 9.0 0.00 0.00 0.00 56 1017.9
20210514202130 81 255 0.0 9.0 0.00 0.00 0.00 55 1017.9
20210514202032 81 252 0.0 5.0 0.00 0.00 0.00 56 1018.0
20210514201031 79 49 0.0 7.0 0.00 0.00 0.00 61 1018.2
20210514200330 79 275 1.0 7.0 0.00 0.00 0.00 60 1018.4
20210514200231 79 271 1.0 7.0 0.00 0.00 0.00 58 1018.4
20210514200129 79 267 1.0 7.0 0.00 0.00 0.00 59 1018.4
20210514200030 79 291 1.0 8.0 0.00 0.00 0.00 59 1018.4
20210514195632 79 265 1.0 8.0 0.00 0.00 0.00 57 1018.4
20210514194929 80 42 0.0 9.0 0.00 0.00 0.00 58 1018.4
20210514194829 80 0 1.0 9.0 0.00 0.00 0.00 57 1018.4
20210514194727 80 281 1.0 9.0 0.00 0.00 0.00 60 1018.4
20210514194627 79 296 1.0 9.0 0.00 0.00 0.00 63 1018.5
20210514194527 79 301 1.0 9.0 0.00 0.00 0.00 60 1018.5
20210514194124 78 277 1.0 9.0 0.00 0.00 0.00 58 1018.4
20210514194022 78 249 1.0 9.0 0.00 0.00 0.00 60 1018.5
20210514193319 79 269 1.0 9.0 0.00 0.00 0.00 57 1018.8
20210514192310 79 281 1.0 8.0 0.00 0.00 0.00 56 1018.8
20210514192208 79 293 1.0 8.0 0.00 0.00 0.00 59 1018.8
20210514191503 79 252 0.0 9.0 0.00 0.00 0.00 58 1018.9
20210514191405 79 350 0.0 9.0 0.00 0.00 0.00 57 1018.9
20210514191304 79 275 0.0 9.0 0.00 0.00 0.00 56 1018.9
20210514190902 79 345 1.0 9.0 0.00 0.00 0.00 57 1018.9
20210514190501 79 263 1.0 9.0 0.00 0.00 0.00 59 1019.0
20210514185454 79 45 1.0 5.0 0.00 0.00 0.00 57 1019.0
20210514185352 79 250 1.0 8.0 0.00 0.00 0.00 56 1019.0
20210514185254 79 279 1.0 8.0 0.00 0.00 0.00 56 1019.0
20210514185152 79 279 1.0 8.0 0.00 0.00 0.00 56 1019.0
20210514184750 79 288 0.0 8.0 0.00 0.00 0.00 56 1019.0
20210514184649 79 200 0.0 8.0 0.00 0.00 0.00 56 1019.1
20210514184549 79 290 0.0 8.0 0.00 0.00 0.00 57 1019.1
20210514184450 79 5 0.0 8.0 0.00 0.00 0.00 58 1019.1
20210514184349 79 35 1.0 9.0 0.00 0.00 0.00 56 1019.1
20210514184251 79 35 1.0 9.0 0.00 0.00 0.00 56 1019.2
20210514184149 79 30 1.0 9.0 0.00 0.00 0.00 62 1019.2
20210514183440 79 257 1.0 9.0 0.00 0.00 0.00 55 1019.2
20210514181831 78 342 0.0 6.0 0.00 0.00 0.00 60 1019.6
20210514181433 78 274 0.0 6.0 0.00 0.00 0.00 58 1019.7
20210514181025 78 40 0.0 3.0 0.00 0.00 0.00 58 1019.8
20210514180926 78 328 0.0 3.0 0.00 0.00 0.00 58 1019.8
20210514180829 78 313 0.0 3.0 0.00 0.00 0.00 59 1019.8
20210514180424 78 57 0.0 3.0 0.00 0.00 0.00 57 1019.8
20210514180326 78 288 0.0 3.0 0.00 0.00 0.00 60 1019.8
20210514180224 78 296 0.0 3.0 0.00 0.00 0.00 58 1019.8
20210514180126 78 273 0.0 0.0 0.00 0.00 0.00 57 1019.8
20210514180027 78 15 0.0 4.0 0.00 0.00 0.00 58 1019.8
20210514175928 78 32 0.0 4.0 0.00 0.00 0.00 59 1019.9
20210514175827 78 32 0.0 4.0 0.00 0.00 0.00 58 1019.9
20210514175729 78 32 0.0 4.0 0.00 0.00 0.00 59 1019.9
20210514175627 78 44 0.0 4.0 0.00 0.00 0.00 55 1019.9
20210514174625 78 257 1.0 8.0 0.00 0.00 0.00 57 1020.1
20210514174220 78 296 1.0 9.0 0.00 0.00 0.00 59 1020.1
20210514173206 77 271 1.0 9.0 0.00 0.00 0.00 57 1020.1
20210514173103 77 255 1.0 9.0 0.00 0.00 0.00 60 1020.1
20210514172701 77 256 0.0 9.0 0.00 0.00 0.00 57 1020.2
20210514172600 77 278 0.0 9.0 0.00 0.00 0.00 58 1020.2
20210514171300 76 265 0.0 0.0 0.00 0.00 0.00 63 1020.4
20210514170857 76 265 0.0 0.0 0.00 0.00 0.00 57 1020.5
20210514170756 76 265 1.0 8.0 0.00 0.00 0.00 58 1020.5
20210514170353 76 273 1.0 8.0 0.00 0.00 0.00 59 1020.4
20210514170251 76 251 1.0 8.0 0.00 0.00 0.00 58 1020.4
20210514170150 76 251 1.0 8.0 0.00 0.00 0.00 57 1020.5
20210514170051 76 264 0.0 8.0 0.00 0.00 0.00 59 1020.4
20210514165952 76 61 0.0 8.0 0.00 0.00 0.00 58 1020.5
20210514165849 76 263 0.0 8.0 0.00 0.00 0.00 58 1020.4
20210514165750 76 289 0.0 8.0 0.00 0.00 0.00 57 1020.4